Temperature
8 8 8 8 8 8 7 8 9 10 9 9 9 8 7 6 5 4 4 3 3 3 3 3 3 3 3 3 3 3 3 3 2 2 2 2 2 2 2 2 2 3 3 3
7 8 8 7 8 8 8 8 8 9 9 9 8 7 6 6 5 4 4 3 3 3 3 3 3 3 3 3 2 2 2 2 2 2 2 2 2 2 1 1 1 2 1 1
8 8 8 9 9 8 8 8 8 9 10 9 8 7 7 6 5 5 4 4 4 3 3 3 3 3 2 2 2 2 2 2 1 1 1 1 1 1 1 1 1 1 1 1
7 8 8 11 8 8 8 8 8 8 9 8 8 7 6 6 5 5 5 4 4 3 3 3 3 2 2 2 2 2 1 1 1 1 1 1 0 0 0 0 -0 -0 -0 -1
8 9 10 10 8 7 8 9 9 8 8 7 6 5 6 6 6 5 5 4 4 4 3 3 2 2 2 2 1 1 1 1 0 0 -0 -0 -0 -1 -1 -1 -1 -1 -1 -2
8 8 10 11 8 6 8 10 9 8 8 7 5 8 9 6 6 5 5 4 4 3 3 3 2 2 2 1 1 1 0 0 -0 -1 -1 -1 -1 -1 -2 -2 -2 -2 -2 -2
7 8 10 9 6 7 9 11 8 7 7 6 6 8 7 6 6 5 5 4 4 3 3 2 2 1 1 1 0 0 -0 -1 -1 -1 -2 -2 -2 -2 -3 -3 -3 -3 -3 -3
7 7 9 7 6 8 10 8 7 7 6 6 6 6 6 6 5 5 4 4 3 3 2 2 2 1 1 0 -0 -0 -1 -1 -1 -2 -2 -2 -3 -3 -3 -4 -4 -4 -4 -4
8 10 9 6 7 7 7 6 7 7 7 6 6 5 6 5 5 4 4 3 3 3 2 2 1 1 0 -0 -0 -1 -1 -2 -2 -2 -3 -3 -3 -4 -4 -4 -5 -5 -5 -5
6 8 7 6 6 7 7 6 7 7 6 6 6 6 5 5 5 4 4 3 3 2 2 1 1 0 -0 -1 -1 -1 -2 -2 -2 -3 -3 -3 -4 -4 -5 -5 -6 -6 -7 -7
6 7 7 7 7 7 7 6 6 6 6 6 5 5 5 5 4 4 3 3 2 2 1 1 0 -0 -1 -1 -1 -2 -2 -2 -3 -3 -4 -4 -5 -5 -5 -6 -7 -7 -7 -8
8 8 8 8 7 7 6 6 6 6 6 6 5 5 5 5 4 4 3 3 2 2 1 1 0 -0 -1 -1 -2 -2 -3 -3 -4 -4 -5 -5 -5 -5 -6 -6 -6 -7 -7 -8
7 6 6 6 6 6 6 6 6 5 6 5 5 5 4 4 4 3 3 2 2 1 1 0 -0 -1 -1 -2 -2 -3 -3 -4 -4 -5 -5 -6 -6 -6 -6 -6 -6 -7 -7 -7
5 5 4 5 5 5 5 5 5 5 5 5 5 4 4 4 3 3 2 2 1 1 0 -0 -1 -1 -2 -2 -3 -4 -4 -5 -5 -5 -6 -6 -7 -7 -8 -8 -8 -7 -7 -7
5 5 4 5 5 5 5 5 5 5 5 5 4 4 3 3 3 2 2 1 1 0 -0 -1 -1 -2 -3 -3 -4 -4 -5 -5 -5 -6 -6 -7 -7 -8 -8 -8 -9 -9 -8 -8
4 4 4 4 4 4 4 4 4 4 4 4 4 3 3 2 2 2 1 1 0 -0 -1 -1 -2 -3 -3 -4 -4 -4 -5 -5 -6 -6 -7 -7 -8 -8 -9 -9 -9 -9 -9 -9
3 3 3 3 4 4 3 4 4 4 4 3 3 3 2 2 1 1 1 -0 -1 -1 -1 -2 -2 -3 -4 -4 -5 -5 -5 -6 -6 -7 -7 -7 -8 -8 -9 -9 -10 -10 -10 -10
3 4 4 4 4 4 4 3 3 3 3 3 3 2 2 2 1 1 -0 -1 -1 -2 -2 -2 -3 -3 -4 -5 -5 -6 -6 -6 -7 -7 -7 -8 -8 -9 -9 -10 -10 -10 -10 -10
4 4 4 4 3 3 3 3 3 3 3 2 2 2 2 1 1 0 -1 -1 -2 -2 -2 -3 -3 -4 -4 -5 -6 -6 -6 -7 -7 -7 -8 -8 -8 -9 -9 -10 -10 -10 -10 -10
4 3 3 3 3 3 3 3 3 3 2 2 2 1 1 1 -0 -1 -1 -1 -2 -2 -3 -3 -4 -4 -5 -5 -6 -6 -7 -7 -7 -8 -8 -8 -9 -9 -9 -10 -10 -10 -10 -10
4 3 3 3 3 3 3 3 3 2 2 2 1 1 1 0 -1 -1 -2 -2 -2 -3 -3 -4 -4 -5 -5 -6 -6 -7 -7 -7 -8 -8 -8 -9 -9 -9 -10 -10 -10 -10 -11 -11
4 3 3 3 3 3 3 2 2 2 2 1 1 0 0 -0 -1 -2 -2 -2 -3 -3 -3 -4 -4 -5 -6 -6 -7 -7 -7 -8 -8 -8 -9 -9 -9 -10 -10 -10 -10 -10 -11 -11
3 3 3 3 3 2 2 2 2 1 1 1 1 0 -0 -1 -1 -2 -2 -2 -3 -3 -4 -4 -5 -5 -6 -6 -7 -7 -8 -8 -8 -9 -9 -9 -10 -10 -10 -10 -10 -10 -10 -11
3 3 3 3 2 2 2 2 1 1 0 0 0 -0 -1 -1 -2 -2 -2 -3 -3 -4 -4 -5 -5 -6 -6 -7 -7 -7 -8 -8 -8 -9 -9 -9 -10 -10 -10 -10 -10 -10 -10 -11
3 3 2 2 2 2 1 1 0 0 0 -0 -0 -1 -1 -2 -2 -2 -3 -3 -4 -4 -5 -5 -6 -6 -6 -7 -7 -8 -8 -8 -9 -9 -9 -10 -10 -10 -10 -10 -10 -10 -10 -10
2 2 2 2 2 1 1 1 0 0 -0 -0 -1 -1 -1 -2 -2 -3 -3 -4 -4 -5 -5 -5 -6 -6 -7 -7 -7 -8 -8 -8 -9 -9 -9 -10 -10 -10 -10 -10 -10 -10 -10 -10
2 1 1 1 1 1 1 0 0 0 -0 -1 -1 -1 -2 -2 -3 -3 -4 -4 -5 -5 -5 -6 -6 -7 -7 -7 -8 -8 -8 -8 -9 -9 -9 -10 -10 -10 -10 -10 -10 -10 -10 -10
Wind_Speed
8 9 7 8 8 8 10 9 6 6 6 8 7 7 7 7 6 5 4 3 2 1 1 2 3 4 4 5 6 6 7 7 8 8 8 8 8 8 8 9 9 9 9 9
5 5 5 8 10 10 10 10 11 11 10 7 5 6 7 8 8 7 6 5 3 2 1 1 1 2 3 4 5 5 6 6 7 7 7 7 8 8 8 8 8 8 9 9
4 4 6 7 7 9 7 8 9 10 6 5 6 8 9 9 9 9 7 6 5 4 3 1 1 1 2 3 3 4 5 5 6 7 7 8 8 8 9 9 9 9 9 9
4 4 4 1 2 5 7 8 10 9 7 7 7 6 7 8 9 9 8 7 6 5 3 2 1 0 1 2 3 4 4 5 6 7 8 8 8 9 9 9 9 9 9 10
3 4 7 4 3 4 5 5 8 11 10 7 4 3 6 9 9 9 8 6 5 5 4 3 2 1 1 2 3 3 4 5 6 7 8 8 9 9 9 9 9 9 9 10
3 4 4 1 3 3 2 4 4 8 8 7 6 5 4 5 7 7 6 5 5 4 4 3 2 1 1 2 3 4 5 6 6 7 7 8 9 9 9 9 9 10 10 10
7 6 7 2 4 5 4 1 2 5 7 8 8 5 1 5 6 6 6 6 5 5 4 3 2 2 2 2 3 4 5 5 6 6 7 8 8 8 9 9 9 9 10 10
5 6 6 5 7 7 3 2 2 4 6 8 8 4 3 5 6 7 6 6 6 5 4 3 2 2 2 3 3 4 5 5 6 6 6 6 8 8 8 9 9 10 10 11
7 7 2 6 7 4 2 4 4 5 6 7 7 7 7 6 7 7 7 6 6 5 4 3 2 3 3 3 3 4 5 5 6 7 6 7 8 9 8 8 8 9 9 10
8 11 9 10 11 10 9 8 8 7 7 7 8 8 8 7 7 7 7 7 6 5 5 4 3 3 3 3 3 4 5 5 6 7 7 7 6 7 7 8 8 9 10 11
10 11 10 8 8 7 6 7 7 7 8 9 8 8 8 8 8 7 6 6 6 6 5 5 3 3 3 3 3 4 5 5 6 6 7 7 7 7 8 8 9 11 11 11
10 8 6 6 3 4 6 8 7 7 7 7 8 8 8 7 7 7 7 6 6 6 6 5 4 3 2 2 3 3 4 5 5 5 6 7 8 8 9 10 14 15 15 15
11 6 8 9 9 7 7 8 7 7 7 7 7 7 7 6 6 6 7 7 7 6 5 4 4 3 2 2 2 3 4 5 5 6 6 7 8 9 10 11 12 14 15 16
12 9 10 9 8 7 6 6 5 5 6 6 6 6 6 6 6 7 7 6 6 5 4 4 3 3 2 2 3 4 5 5 6 6 6 7 8 8 9 10 11 11 12 15
12 12 11 9 8 8 6 5 5 5 5 5 5 6 7 7 7 6 5 5 5 5 4 4 3 3 2 3 3 4 4 4 5 6 6 7 8 8 9 10 10 11 11 12
7 8 10 11 11 9 7 7 7 7 6 6 6 6 6 6 6 5 5 6 5 5 4 4 4 3 3 3 4 4 4 5 6 6 6 7 7 8 8 9 10 10 11 11
9 9 8 8 9 9 8 8 8 8 7 7 7 6 6 6 5 5 5 5 5 4 4 4 4 3 3 3 4 3 4 5 6 6 6 7 7 8 9 9 10 10 11 12
12 11 10 10 10 10 9 8 7 7 7 6 6 6 7 8 7 7 6 5 4 4 4 4 3 3 3 3 3 3 4 4 5 6 6 6 8 8 9 9 10 11 11 12
9 10 10 10 10 9 9 8 7 7 6 6 7 8 7 7 6 6 6 6 6 5 4 4 4 4 3 3 4 3 4 5 5 6 6 8 8 8 8 9 10 10 11 11
6 7 7 7 7 7 7 6 6 6 6 7 7 6 6 6 6 6 6 6 5 4 3 4 4 3 3 4 4 3 4 5 6 6 6 7 7 8 8 9 10 10 10 10
6 6 5 5 5 5 6 6 6 6 6 7 8 8 7 6 6 6 6 5 4 4 4 5 3 3 3 3 4 3 4 5 5 6 6 7 7 8 8 9 9 10 10 10
5 5 5 4 4 4 4 5 6 6 6 6 7 7 6 7 7 6 6 4 4 5 4 3 3 4 4 4 3 4 4 5 5 5 6 6 7 8 8 9 9 10 10 10
5 5 5 5 5 4 3 4 6 6 7 8 8 8 8 7 6 6 5 4 4 6 4 3 4 5 5 3 3 4 4 5 5 6 6 6 7 7 8 9 9 9 10 10
6 5 5 4 4 4 5 5 5 5 6 6 6 7 7 6 5 5 3 5 6 6 4 4 5 5 4 3 3 4 4 5 5 6 6 6 7 7 8 8 9 9 9 11
6 5 5 6 6 6 6 5 4 5 5 5 6 7 6 5 5 5 4 5 7 6 4 4 5 5 3 3 4 4 4 5 5 6 6 6 7 7 8 8 8 9 9 10
7 6 6 7 6 5 5 5 5 5 5 5 5 5 5 5 5 5 4 5 6 6 4 3 4 4 3 4 4 4 4 5 6 5 6 6 7 8 8 8 10 9 9 9
6 6 5 6 6 6 6 6 7 7 7 7 6 6 6 6 5 6 6 5 5 4 4 3 3 3 3 4 4 4 4 4 5 5 6 6 6 7 8 9 8 9 9 9
Wind_Direction
266 271 262 260 256 227 218 231 244 251 256 259 239 226 220 213 210 214 219 223 228 252 357 13 17 20 21 22 21 21 25 26 22 16 14 12 10 7 5 4 1 359 358 357
275 260 260 264 255 238 233 233 239 254 266 261 237 215 212 210 209 215 220 220 220 224 240 307 360 11 16 17 14 15 20 20 13 9 8 7 3 359 358 357 355 353 352 349
282 307 290 271 248 218 211 215 221 236 238 202 207 213 215 212 211 216 219 216 214 217 223 237 291 344 1 4 5 9 10 7 3 360 359 357 354 354 352 349 347 346 344 341
294 308 260 273 116 201 219 238 225 235 240 224 228 233 231 223 218 218 215 211 210 209 208 209 214 257 335 353 358 358 358 357 354 350 348 345 345 345 342 338 337 335 332 331
269 284 278 274 207 195 217 262 226 227 235 231 221 236 242 223 218 219 213 207 204 200 197 193 199 220 282 328 341 345 345 345 343 340 336 335 335 334 332 329 327 325 322 322
245 262 259 241 145 161 197 261 210 210 219 201 181 227 239 186 196 202 197 190 188 184 183 192 202 217 262 310 329 333 333 330 330 329 327 326 326 325 324 321 317 317 315 315
235 249 266 247 148 158 215 322 151 203 211 195 206 242 95 155 178 185 184 181 177 178 186 197 201 218 260 294 309 317 317 316 320 322 321 318 318 318 317 315 313 313 312 313
208 227 253 160 159 200 258 20 220 225 217 213 223 226 194 185 184 182 182 181 180 183 190 190 196 220 255 282 303 309 310 312 316 319 318 315 315 315 315 315 314 315 315 316
219 237 296 184 216 247 284 264 256 245 238 222 224 222 212 202 196 193 191 187 186 190 192 194 206 229 256 286 302 303 305 310 313 315 317 317 316 316 316 316 315 315 315 315
259 262 260 252 252 256 253 256 262 256 247 228 227 221 211 205 199 195 194 191 187 190 199 208 213 230 256 280 290 293 301 310 315 317 318 318 314 311 311 312 312 312 313 313
256 270 282 265 238 243 251 259 261 254 242 233 227 221 212 207 203 198 193 190 189 196 206 212 212 224 249 267 278 290 303 311 314 313 312 312 310 308 306 304 306 309 308 309
249 250 248 271 272 268 266 270 266 256 247 232 222 219 210 207 202 195 192 189 193 200 207 209 212 228 245 264 279 294 303 309 309 309 310 310 311 308 298 298 304 304 303 304
252 265 266 280 286 277 273 274 269 250 236 230 221 211 202 203 197 191 192 194 198 201 203 205 212 229 242 259 277 287 295 302 303 305 308 310 311 312 313 312 308 307 309 312
249 259 267 264 266 271 272 272 264 250 235 221 208 196 190 191 189 193 197 198 195 193 197 202 214 233 246 257 271 282 290 292 296 300 304 306 307 308 308 311 315 316 317 317
245 235 249 268 273 268 261 250 241 235 219 206 195 188 187 189 194 196 190 181 179 187 195 200 217 236 243 253 267 279 287 294 299 302 303 304 306 306 306 306 307 310 314 317
249 246 250 254 259 260 251 234 232 232 218 208 201 198 194 192 187 182 178 177 183 196 199 205 221 233 237 250 267 275 282 295 304 303 303 305 307 308 308 308 309 310 312 316
248 253 244 247 253 255 247 239 233 228 219 212 207 193 180 175 178 185 187 190 195 199 201 208 219 229 238 250 264 276 286 294 299 300 301 305 307 307 307 307 307 308 308 311
239 248 248 252 255 253 251 245 234 224 217 210 193 183 185 189 195 195 189 183 188 202 211 213 215 227 237 249 261 274 285 293 298 299 300 302 305 306 306 305 306 307 308 312
244 247 250 249 248 244 240 236 228 217 205 188 185 193 197 199 196 187 180 185 197 212 211 204 210 224 239 247 266 271 282 291 295 296 298 302 305 304 304 304 305 307 308 310
255 251 250 250 242 230 228 225 212 203 195 184 182 187 194 196 188 184 188 204 214 213 193 199 212 229 244 249 260 268 278 286 292 296 299 300 302 304 305 305 306 307 308 309
261 254 246 241 238 228 218 207 197 196 191 185 187 194 196 192 187 185 193 212 209 196 198 203 213 232 245 252 255 265 276 284 289 292 295 298 300 302 303 305 306 306 307 307
250 240 237 233 228 230 216 200 196 193 190 191 193 189 186 189 192 198 212 217 195 190 198 207 221 238 252 257 254 265 275 281 285 287 290 293 296 299 301 304 304 304 304 304
247 238 232 227 223 221 216 209 201 196 197 197 195 194 196 196 193 197 210 201 193 199 204 214 228 244 257 251 257 265 272 277 281 284 287 290 292 295 297 300 300 301 302 302
242 237 230 220 204 211 228 229 208 203 202 205 204 199 194 193 203 211 205 184 192 200 210 220 231 244 250 248 255 262 268 274 279 284 286 288 290 292 293 295 297 299 299 300
235 231 223 213 218 229 226 209 198 200 201 208 208 204 202 202 203 193 186 190 197 201 213 220 231 242 243 248 252 260 266 270 278 285 286 289 291 292 292 293 295 297 298 299
231 234 234 232 235 231 217 206 212 210 203 208 212 205 199 194 187 183 185 191 197 205 210 215 223 232 241 248 254 260 266 276 281 283 284 287 289 290 290 294 297 296 296 296
233 236 238 243 238 225 217 214 215 214 208 207 211 202 194 189 187 187 187 190 195 204 209 213 220 229 241 250 257 262 267 272 277 280 283 284 285 287 290 293 294 295 296 296
Height
1497 1495 1495 1493 1492 1492 1493 1487 1483 1477 1478 1477 1479 1481 1482 1483 1484 1484 1484 1483 1482 1481 1480 1478 1477 1475 1473 1471 1469 1467 1465 1463 1460 1459 1456 1454 1452 1450 1447 1445 1443 1440 1438 1435
1497 1492 1492 1490 1486 1486 1487 1485 1482 1480 1478 1474 1477 1479 1480 1481 1481 1482 1482 1481 1481 1480 1479 1478 1477 1475 1473 1471 1470 1468 1465 1463 1461 1459 1456 1453 1451 1448 1446 1443 1441 1438 1436 1433
1491 1490 1488 1480 1475 1478 1480 1478 1477 1474 1472 1473 1475 1476 1476 1477 1478 1479 1479 1479 1479 1479 1478 1477 1476 1474 1473 1471 1469 1467 1465 1462 1460 1458 1455 1452 1450 1447 1444 1441 1438 1436 1433 1430
1494 1489 1486 1471 1475 1475 1475 1473 1473 1471 1470 1472 1473 1474 1474 1475 1475 1476 1476 1477 1477 1477 1476 1476 1475 1473 1472 1470 1468 1466 1464 1461 1459 1456 1453 1451 1448 1445 1442 1439 1436 1433 1430 1427
1494 1485 1475 1470 1474 1475 1474 1469 1468 1468 1469 1471 1472 1473 1471 1471 1471 1473 1474 1474 1474 1474 1474 1473 1473 1472 1470 1468 1467 1464 1462 1460 1457 1454 1452 1449 1446 1442 1439 1436 1433 1429 1426 1423
1492 1487 1474 1466 1472 1473 1475 1466 1464 1466 1466 1468 1471 1469 1466 1467 1468 1470 1471 1471 1472 1472 1472 1471 1470 1469 1468 1466 1465 1462 1460 1458 1455 1452 1449 1446 1443 1439 1436 1433 1429 1426 1422 1419
1489 1484 1469 1467 1471 1474 1470 1460 1463 1464 1464 1466 1466 1465 1466 1465 1466 1467 1468 1469 1469 1469 1469 1469 1468 1467 1465 1464 1462 1460 1457 1455 1452 1449 1446 1443 1439 1436 1432 1429 1425 1422 1418 1415
1485 1482 1471 1468 1469 1468 1462 1461 1461 1462 1462 1463 1463 1463 1463 1463 1464 1465 1466 1466 1467 1467 1466 1466 1465 1464 1463 1461 1459 1457 1454 1452 1449 1446 1443 1439 1436 1432 1429 1425 1421 1418 1414 1411
1475 1468 1464 1464 1463 1462 1461 1461 1460 1460 1459 1460 1460 1460 1460 1461 1461 1462 1463 1463 1464 1464 1463 1463 1462 1461 1459 1458 1456 1453 1451 1448 1445 1442 1439 1436 1432 1429 1425 1421 1418 1414 1410 1406
1472 1462 1461 1460 1459 1458 1458 1458 1457 1457 1456 1456 1456 1456 1456 1457 1458 1459 1459 1460 1460 1460 1460 1459 1458 1457 1456 1454 1452 1450 1447 1444 1441 1438 1435 1432 1428 1425 1421 1418 1414 1410 1406 1402
1466 1459 1457 1453 1453 1454 1454 1453 1453 1452 1452 1452 1452 1452 1453 1453 1454 1455 1456 1456 1456 1456 1456 1455 1454 1453 1452 1450 1448 1446 1443 1440 1438 1435 1431 1428 1425 1422 1418 1414 1411 1407 1403 1399
1455 1452 1453 1451 1450 1450 1450 1449 1448 1448 1447 1447 1448 1448 1449 1450 1450 1451 1452 1452 1452 1452 1452 1451 1450 1449 1448 1446 1444 1442 1439 1436 1434 1431 1427 1424 1420 1417 1413 1410 1406 1402 1398 1395
1450 1449 1449 1447 1447 1446 1445 1444 1444 1443 1443 1443 1444 1445 1445 1446 1446 1447 1447 1448 1448 1448 1447 1447 1446 1445 1443 1442 1440 1438 1435 1433 1430 1427 1423 1420 1416 1412 1408 1405 1402 1398 1394 1390
1445 1445 1444 1443 1442 1442 1441 1440 1439 1439 1439 1439 1440 1440 1441 1442 1442 1442 1443 1443 1443 1443 1443 1443 1442 1441 1439 1438 1436 1434 1431 1429 1426 1422 1419 1416 1412 1408 1404 1400 1396 1392 1389 1385
1439 1440 1439 1438 1437 1436 1436 1435 1434 1434 1434 1435 1435 1436 1437 1437 1438 1439 1439 1439 1439 1439 1439 1438 1437 1436 1435 1433 1431 1429 1427 1424 1421 1418 1415 1412 1408 1404 1401 1396 1392 1387 1383 1379
1433 1433 1433 1432 1431 1430 1430 1429 1429 1429 1430 1430 1431 1432 1433 1434 1434 1434 1435 1435 1435 1435 1434 1434 1433 1432 1431 1429 1427 1425 1423 1420 1417 1414 1411 1408 1404 1400 1396 1392 1388 1384 1379 1375
1428 1427 1426 1426 1425 1425 1424 1424 1424 1425 1425 1426 1427 1428 1429 1429 1430 1430 1430 1431 1431 1431 1430 1430 1429 1428 1426 1424 1423 1420 1418 1416 1413 1410 1407 1404 1400 1396 1392 1388 1384 1380 1376 1372
1421 1421 1421 1420 1420 1419 1419 1420 1420 1420 1421 1422 1423 1424 1424 1425 1425 1426 1426 1426 1426 1426 1426 1425 1424 1423 1422 1420 1418 1416 1414 1411 1409 1406 1403 1399 1396 1392 1389 1385 1380 1376 1372 1368
1415 1415 1415 1415 1415 1415 1415 1415 1415 1416 1417 1418 1419 1420 1420 1421 1422 1422 1422 1422 1422 1422 1422 1421 1420 1419 1417 1416 1414 1412 1410 1407 1405 1402 1399 1395 1392 1388 1384 1381 1376 1372 1368 1364
1411 1410 1410 1410 1410 1410 1411 1411 1411 1412 1413 1414 1415 1416 1416 1417 1417 1418 1418 1418 1418 1418 1417 1417 1416 1415 1413 1412 1410 1408 1405 1403 1400 1398 1394 1391 1388 1384 1380 1376 1373 1369 1364 1361
1408 1407 1407 1406 1407 1407 1407 1407 1408 1408 1409 1410 1411 1411 1412 1413 1413 1413 1413 1414 1414 1414 1413 1412 1411 1410 1409 1407 1405 1403 1401 1399 1396 1393 1390 1387 1383 1380 1376 1372 1369 1365 1361 1357
1405 1404 1403 1403 1403 1403 1403 1404 1404 1405 1406 1406 1407 1407 1408 1408 1409 1409 1409 1410 1409 1409 1409 1408 1407 1406 1404 1403 1401 1399 1397 1395 1392 1389 1386 1383 1379 1376 1372 1369 1365 1361 1357 1353
1402 1401 1400 1400 1400 1399 1399 1400 1401 1401 1402 1402 1403 1403 1403 1404 1404 1404 1404 1405 1405 1405 1404 1403 1403 1401 1400 1398 1397 1395 1392 1390 1388 1385 1382 1379 1375 1372 1369 1365 1362 1358 1354 1350
1398 1397 1397 1396 1396 1396 1395 1396 1396 1397 1397 1398 1399 1399 1399 1399 1399 1400 1400 1400 1400 1400 1399 1399 1398 1397 1395 1394 1392 1390 1388 1386 1384 1381 1378 1375 1372 1369 1365 1362 1358 1355 1351 1347
1395 1394 1393 1392 1392 1391 1391 1391 1391 1392 1392 1393 1393 1394 1394 1394 1395 1395 1395 1395 1396 1395 1395 1394 1393 1392 1391 1389 1388 1386 1384 1382 1379 1377 1374 1371 1368 1365 1362 1359 1355 1351 1348 1344
1389 1388 1388 1388 1387 1387 1386 1386 1386 1386 1387 1387 1387 1388 1389 1389 1390 1390 1390 1391 1391 1391 1390 1389 1389 1388 1386 1385 1383 1381 1379 1378 1376 1373 1370 1368 1365 1362 1359 1356 1352 1349 1345 1341
1383 1382 1381 1381 1381 1381 1381 1380 1380 1380 1381 1381 1382 1383 1384 1384 1384 1385 1385 1385 1386 1386 1385 1385 1384 1383 1382 1381 1379 1377 1375 1374 1372 1369 1367 1364 1361 1358 1355 1352 1349 1346 1342 1339